Satellite: NOAA-16
Catalog number: 26536
Epoch time:      11131.74140384
Element set:    0293
Inclination:      099.1418 deg
RA of node:       161.5392 deg
Eccentricity:    0.0011262
Arg of perigee:   132.1670 deg
Mean anomaly:     228.0457 deg
Mean motion:   14.12614944 rev/day
Decay rate:      -1.74e-06 rev/day^2
Epoch rev:           54821
Checksum:              279

Satellite: NOAA-17
Catalog number: 27453
Epoch time:      11131.71583535
Element set:    0287
Inclination:      098.3812 deg
RA of node:       173.0942 deg
Eccentricity:    0.0010719
Arg of perigee:   254.9576 deg
Mean anomaly:     105.0416 deg
Mean motion:   14.24269938 rev/day
Decay rate:       2.15e-06 rev/day^2
Epoch rev:           46146
Checksum:              307

Satellite: NOAA-18
Catalog number: 28654
Epoch time:      11131.80585174
Element set:    0767
Inclination:      098.9930 deg
RA of node:       082.8695 deg
Eccentricity:    0.0013729
Arg of perigee:   204.5222 deg
Mean anomaly:     155.5305 deg
Mean motion:   14.11470328 rev/day
Decay rate:       -4.7e-07 rev/day^2
Epoch rev:           30779
Checksum:              318

Satellite: NOAA-19
Catalog number: 33591
Epoch time:      11131.79507329
Element set:    0958
Inclination:      098.8246 deg
RA of node:       072.5647 deg
Eccentricity:    0.0015143
Arg of perigee:   079.3953 deg
Mean anomaly:     280.8913 deg
Mean motion:   14.11163841 rev/day
Decay rate:       1.06e-06 rev/day^2
Epoch rev:           11625
Checksum:              313

/EX
SB KEPS @ AMSAT  $ORB11133.M
Orbital Elements  11133.MISC

HR AMSAT ORBITAL ELEMENTS FOR MANNED AND MISCELLANEOUS SATELLITES
FROM WA5QGD FORT WORTH,TX May 13, 2011
Send Subscribe/unsubscribe to KEPS at http://www.amsat.org/mailman/listinfo/kep
BID: ORB11133.M
TO ALL RADIO AMATEURS BT

Satellite: HUBBLE
Catalog number: 20580
Epoch time:      11131.68985533
Element set:     763
Inclination:      028.4700 deg
RA of node:       254.8583 deg
Eccentricity:    0.0003590
Arg of perigee:   090.6325 deg
Mean anomaly:     269.4677 deg
Mean motion:   15.01347649 rev/day
Decay rate:      1.322e-05 rev/day^2
Epoch rev:           95416
Checksum:              305

Satellite: ISS
Catalog number: 25544
Epoch time:      11133.06519513
Element set:     345
Inclination:      051.6483 deg
RA of node:       341.0789 deg
Eccentricity:    0.0002453
Arg of perigee:   268.0420 deg
Mean anomaly:     239.1666 deg
Mean motion:   15.74895012 rev/day
Decay rate:     2.5120e-04 rev/day^2
Epoch rev:           71537
Checksum:              281

Satellite: CO-58
Catalog number: 28895
Epoch time:      11132.43011153
Element set:     871
Inclination:      097.9711 deg
RA of node:       010.1906 deg
Eccentricity:    0.0017206
Arg of perigee:   336.7598 deg
Mean anomaly:     023.2794 deg
Mean motion:   14.60091459 rev/day
Decay rate:       4.05e-06 rev/day^2
Epoch rev:           29502
Checksum:              298

Satellite: FALCON
Catalog number: 30776
Epoch time:      11132.54287979
Element set:      83
Inclination:      035.4346 deg
RA of node:       203.7037 deg
Eccentricity:    0.0000456
Arg of perigee:   222.8017 deg
Mean anomaly:     137.2665 deg
Mean motion:   15.04564829 rev/day
Decay rate:      2.180e-05 rev/day^2
Epoch rev:           22967
Checksum:              296

Satellite: MAST
Catalog number: 31126
Epoch time:      11132.86404719
Element set:     156
Inclination:      097.8974 deg
RA of node:       162.0806 deg
Eccentricity:    0.0092844
Arg of perigee:   280.7530 deg
Mean anomaly:     078.3224 deg
Mean motion:   14.53738662 rev/day
Decay rate:       1.59e-06 rev/day^2
Epoch rev:           21595
Checksum:              308

Satellite: CAPE1
Catalog number: 31130
Epoch time:      11132.54174588
Element set:     173
Inclination:      097.8994 deg
RA of node:       158.5962 deg
Eccentricity:    0.0101345
Arg of perigee:   292.3914 deg
Mean anomaly:     066.6527 deg
Mean motion:   14.52379776 rev/day
Decay rate:       4.83e-06 rev/day^2
Epoch rev:           21546
Checksum:              321

Satellite: COMPASS
Catalog number: 32787
Epoch time:      11132.63885900
Element set:     983
Inclination:      097.8490 deg
RA of node:       197.1127 deg
Eccentricity:    0.0014590
Arg of perigee:   294.2794 deg
Mean anomaly:     065.6865 deg
Mean motion:   14.82379181 rev/day
Decay rate:      1.195e-05 rev/day^2
Epoch rev:           16429
Checksum:              341

Satellite: AAUSAT2
Catalog number: 32788
Epoch time:      11132.67448388
Element set:     974
Inclination:      097.8480 deg
RA of node:       197.3593 deg
Eccentricity:    0.0014122
Arg of perigee:   294.5475 deg
Mean anomaly:     065.4290 deg
Mean motion:   14.82561305 rev/day
Decay rate:      1.356e-05 rev/day^2
Epoch rev:           16431
Checksum:              324

Satellite: DO-64
Catalog number: 32789
Epoch time:      11131.68289716
Element set:     990
Inclination:      097.8583 deg
RA of node:       197.3222 deg
Eccentricity:    0.0014244
Arg of perigee:   295.4699 deg
Mean anomaly:     064.5054 deg
Mean motion:   14.82992096 rev/day
Decay rate:      2.232e-05 rev/day^2
Epoch rev:           16417
Checksum:              347

